This is the latest recevied weather packets stored in our database for station/object W7TRD. If no packets are shown the sender has not sent any weather packets the latest 10 day(s).
| Time | Temp. | Humidity | Pressure | Rain* | Wind** | Luminosity | Snow |
|---|---|---|---|---|---|---|---|
| 1788564676 | 13.89° C | 92% | 1015.2 hPa | 1.27 mm | - | 64 W/m² | - |
| 1788564372 | 13.89° C | 91% | 1015.3 hPa | 1.78 mm | - | 56 W/m² | - |
| 1788564068 | 13.89° C | 92% | 1015.3 hPa | 1.78 mm | - | 51 W/m² | - |
| 1788563764 | 13.89° C | 91% | 1015.4 hPa | 1.27 mm | - | 46 W/m² | - |
| 1788563458 | 13.33° C | 90% | 1015.4 hPa | 0 mm | - | 45 W/m² | - |
| 1788563157 | 13.33° C | 91% | 1015.6 hPa | 0 mm | - | 46 W/m² | - |
| 1788562853 | 13.89° C | 90% | 1015.5 hPa | 0 mm | - | 42 W/m² | - |
| 1788562550 | 13.89° C | 88% | 1015.3 hPa | 0 mm | - | 42 W/m² | - |
| 1788562245 | 13.89° C | 89% | 1015.2 hPa | 0 mm | - | 44 W/m² | - |
| 1788561940 | 13.89° C | 86% | 1015 hPa | 0 mm | - | 46 W/m² | - |
| 1788561640 | 14.44° C | 87% | 1015.1 hPa | 0 mm | - | 48 W/m² | - |
| 1788561339 | 14.44° C | 87% | 1015.1 hPa | 0 mm | - | 52 W/m² | - |
| 1788561035 | 14.44° C | 87% | 1015.1 hPa | 4.83 mm | - | 59 W/m² | - |
| 1788560731 | 14.44° C | 85% | 1014.9 hPa | 10.67 mm | - | 56 W/m² | - |
| 1788560426 | 16.11° C | 80% | 1015 hPa | 6.1 mm | - | 68 W/m² | - |
| 1788560120 | 17.22° C | 67% | 1014.8 hPa | 0 mm | - | 104 W/m² | - |
| 1788559815 | 17.78° C | 65% | 1014.7 hPa | 0 mm | - | 122 W/m² | - |
| 1788559514 | 18.89° C | 66% | 1014.6 hPa | 0 mm | - | 53 W/m² | - |
| 1788559211 | 20° C | 61% | 1014.5 hPa | 0 mm | - | 187 W/m² | - |
| 1788558905 | 20° C | 60% | 1014.1 hPa | 0 mm | - | 281 W/m² | - |
| 1788558601 | 20° C | 58% | 1014.1 hPa | 0 mm | - | 312 W/m² | - |
| 1788558296 | 20.56° C | 60% | 1014.2 hPa | 0 mm | - | 251 W/m² | - |
| 1788557991 | 20.56° C | 59% | 1013.8 hPa | 0 mm | - | 209 W/m² | - |
| 1788557689 | 20.56° C | 61% | 1014.1 hPa | 0 mm | - | 223 W/m² | - |
| 1788557386 | 20.56° C | 61% | 1013.8 hPa | 0 mm | - | 211 W/m² | - |
* Rain latest hour (hover to see other rain measurements)
** Current wind speed in m/s (hover to see current wind gust speed)